PTSMC KACK-KLGA

Flight info

Callsign PTSMC
Flight time 1h 31m
Altitude 20000
Route CLAMY V46 CCC V16 KEEPM
Aircraft TBM9/L-SG/C

Departure

Time 2026-05-09 00:27
Airport Nantucket Memorial Airport (KACK)

Arrival

Time 2026-05-09 01:59
Airport LaGuardia Airport (KLGA)
Time Latitude Longitude Altitude Speed Heading
2026-05-09 00:13 41.25542 -70.06506 44 ft 0 kts 134°
2026-05-09 00:23 41.25547 -70.06454 44 ft 12 kts 41°
2026-05-09 00:23 41.25588 -70.06358 45 ft 13 kts 62°
2026-05-09 00:23 41.25652 -70.06264 46 ft 15 kts 50°
2026-05-09 00:24 41.25706 -70.06185 48 ft 0 kts 46°
2026-05-09 00:24 41.25722 -70.06164 48 ft 13 kts 45°
2026-05-09 00:24 41.25814 -70.06042 48 ft 22 kts 45°
2026-05-09 00:24 41.25932 -70.05890 49 ft 23 kts 50°
2026-05-09 00:25 41.25975 -70.05762 50 ft 11 kts 65°
2026-05-09 00:25 41.25970 -70.05713 50 ft 0 kts 129°
2026-05-09 00:26 41.25945 -70.05677 50 ft 14 kts 140°
2026-05-09 00:27 41.25839 -70.05742 47 ft 28 kts 225°
2026-05-09 00:27 41.25536 -70.06132 71 ft 92 kts 222°
2026-05-09 00:27 41.24964 -70.06771 380 ft 122 kts 225°
2026-05-09 00:27 41.24275 -70.07501 1065 ft 119 kts 225°
2026-05-09 00:28 41.23598 -70.08138 1791 ft 122 kts 222°
2026-05-09 00:28 41.22882 -70.08758 2398 ft 126 kts 222°
2026-05-09 00:28 41.22176 -70.09452 2995 ft 123 kts 240°
2026-05-09 00:28 41.22069 -70.10509 3594 ft 120 kts 281°
2026-05-09 00:29 41.22352 -70.11549 4238 ft 121 kts 300°
2026-05-09 00:29 41.22803 -70.12498 4876 ft 122 kts 298°
2026-05-09 00:29 41.23215 -70.13475 5521 ft 121 kts 297°
2026-05-09 00:29 41.23611 -70.14453 6179 ft 120 kts 296°
2026-05-09 00:30 41.23998 -70.15431 6804 ft 119 kts 295°
2026-05-09 00:30 41.24373 -70.16390 7461 ft 116 kts 295°
2026-05-09 00:30 41.24734 -70.17314 8101 ft 113 kts 294°
2026-05-09 00:30 41.25088 -70.18225 8774 ft 109 kts 294°
2026-05-09 00:31 41.25430 -70.19107 9468 ft 106 kts 294°
2026-05-09 00:31 41.25769 -70.19983 9985 ft 115 kts 294°
2026-05-09 00:31 41.26190 -70.21066 10015 ft 147 kts 295°
2026-05-09 00:31 41.26705 -70.22372 10016 ft 170 kts 295°
2026-05-09 00:32 41.27275 -70.23826 10008 ft 184 kts 295°
2026-05-09 00:32 41.27875 -70.25368 10010 ft 191 kts 295°
2026-05-09 00:32 41.28492 -70.26960 10007 ft 196 kts 295°
2026-05-09 00:32 41.29118 -70.28579 10012 ft 198 kts 295°
2026-05-09 00:33 41.29749 -70.30213 10011 ft 199 kts 295°
2026-05-09 00:33 41.30374 -70.31832 10012 ft 200 kts 295°
2026-05-09 00:33 41.31008 -70.33476 10012 ft 200 kts 295°
2026-05-09 00:33 41.31643 -70.35122 10010 ft 200 kts 295°
2026-05-09 00:34 41.32282 -70.36782 10012 ft 203 kts 295°
2026-05-09 00:34 41.32932 -70.38464 10009 ft 205 kts 295°
2026-05-09 00:34 41.33583 -70.40156 10010 ft 206 kts 295°
2026-05-09 00:34 41.34237 -70.41854 10009 ft 206 kts 295°
2026-05-09 00:35 41.34890 -70.43554 10004 ft 207 kts 295°
2026-05-09 00:35 41.35544 -70.45257 10004 ft 207 kts 295°
2026-05-09 00:35 41.36191 -70.46940 10006 ft 207 kts 295°
2026-05-09 00:35 41.36847 -70.48648 10002 ft 207 kts 295°
2026-05-09 00:36 41.37503 -70.50359 10002 ft 208 kts 295°
2026-05-09 00:36 41.38159 -70.52070 10003 ft 208 kts 295°
2026-05-09 00:36 41.38815 -70.53781 10001 ft 208 kts 295°
2026-05-09 00:36 41.39471 -70.55495 10000 ft 208 kts 295°
2026-05-09 00:37 41.40127 -70.57207 9997 ft 208 kts 295°
2026-05-09 00:37 41.40783 -70.58922 9996 ft 208 kts 295°
2026-05-09 00:37 41.41438 -70.60636 9995 ft 208 kts 295°
2026-05-09 00:37 41.42084 -70.62328 9994 ft 208 kts 295°
2026-05-09 00:38 41.42739 -70.64043 9992 ft 208 kts 295°
2026-05-09 00:38 41.43394 -70.65756 9993 ft 208 kts 295°
2026-05-09 00:38 41.44048 -70.67473 9988 ft 208 kts 295°
2026-05-09 00:38 41.44702 -70.69188 9992 ft 207 kts 295°
2026-05-09 00:39 41.45354 -70.70901 9991 ft 207 kts 295°
2026-05-09 00:39 41.46006 -70.72614 9990 ft 207 kts 295°
2026-05-09 00:39 41.46658 -70.74325 9991 ft 207 kts 295°
2026-05-09 00:39 41.47309 -70.76037 9989 ft 207 kts 295°
2026-05-09 00:40 41.47958 -70.77746 9991 ft 207 kts 295°
2026-05-09 00:40 41.48608 -70.79457 9989 ft 207 kts 295°
2026-05-09 00:40 41.49249 -70.81145 9992 ft 207 kts 295°
2026-05-09 00:41 41.50546 -70.84567 9981 ft 207 kts 295°
2026-05-09 00:41 41.51196 -70.86280 9979 ft 207 kts 295°
2026-05-09 00:41 41.51844 -70.87993 9979 ft 207 kts 295°
2026-05-09 00:41 41.52493 -70.89707 9978 ft 207 kts 295°
2026-05-09 00:42 41.53141 -70.91421 9975 ft 207 kts 295°
2026-05-09 00:42 41.53790 -70.93137 9975 ft 207 kts 295°
2026-05-09 00:42 41.54438 -70.94853 9975 ft 207 kts 295°
2026-05-09 00:42 41.55079 -70.96550 9972 ft 207 kts 295°
2026-05-09 00:43 41.55724 -70.98267 9976 ft 206 kts 293°
2026-05-09 00:43 41.56006 -71.00128 9974 ft 207 kts 275°
2026-05-09 00:43 41.55871 -71.02049 9977 ft 210 kts 264°
2026-05-09 00:43 41.55578 -71.03960 9974 ft 210 kts 264°
2026-05-09 00:44 41.55314 -71.05879 9975 ft 210 kts 265°
2026-05-09 00:44 41.55050 -71.07798 9979 ft 210 kts 265°
2026-05-09 00:44 41.54784 -71.09715 9979 ft 210 kts 264°
2026-05-09 00:44 41.54516 -71.11634 9983 ft 210 kts 265°
2026-05-09 00:45 41.54248 -71.13555 9979 ft 211 kts 264°
2026-05-09 00:45 41.53980 -71.15477 9982 ft 210 kts 264°
2026-05-09 00:45 41.53711 -71.17400 9981 ft 211 kts 264°
2026-05-09 00:45 41.53447 -71.19296 9983 ft 211 kts 264°
2026-05-09 00:46 41.53177 -71.21217 9984 ft 211 kts 264°
2026-05-09 00:46 41.52907 -71.23135 9991 ft 210 kts 264°
2026-05-09 00:46 41.52639 -71.25051 9989 ft 210 kts 264°
2026-05-09 00:46 41.52370 -71.26962 9988 ft 210 kts 264°
2026-05-09 00:47 41.52101 -71.28874 9987 ft 210 kts 264°
2026-05-09 00:47 41.51831 -71.30789 9988 ft 210 kts 264°
2026-05-09 00:47 41.51560 -71.32709 9988 ft 211 kts 264°
2026-05-09 00:47 41.51289 -71.34624 9985 ft 210 kts 264°
2026-05-09 00:48 41.51022 -71.36515 9989 ft 210 kts 264°
2026-05-09 00:48 41.50750 -71.38429 9986 ft 210 kts 264°
2026-05-09 00:48 41.50479 -71.40341 9988 ft 210 kts 264°
2026-05-09 00:48 41.50207 -71.42253 9986 ft 210 kts 264°
2026-05-09 00:49 41.49936 -71.44163 9989 ft 210 kts 264°
2026-05-09 00:49 41.49664 -71.46075 9992 ft 210 kts 264°
2026-05-09 00:49 41.49391 -71.47988 9990 ft 210 kts 264°
2026-05-09 00:49 41.49118 -71.49901 9991 ft 210 kts 264°
2026-05-09 00:50 41.48844 -71.51813 9989 ft 210 kts 264°
2026-05-09 00:50 41.48573 -71.53706 9992 ft 211 kts 264°
2026-05-09 00:50 41.48299 -71.55624 9994 ft 211 kts 264°
2026-05-09 00:50 41.48023 -71.57543 9994 ft 211 kts 264°
2026-05-09 00:51 41.47748 -71.59461 9993 ft 211 kts 264°
2026-05-09 00:51 41.47472 -71.61378 9994 ft 211 kts 264°
2026-05-09 00:51 41.47195 -71.63297 9992 ft 211 kts 264°
2026-05-09 00:51 41.46919 -71.65212 9992 ft 210 kts 264°
2026-05-09 00:52 41.46642 -71.67128 9992 ft 211 kts 264°
2026-05-09 00:52 41.46366 -71.69045 9991 ft 211 kts 264°
2026-05-09 00:52 41.46091 -71.70939 9996 ft 211 kts 263°
2026-05-09 00:52 41.45813 -71.72856 9994 ft 211 kts 263°
2026-05-09 00:53 41.45534 -71.74773 9994 ft 211 kts 263°
2026-05-09 00:53 41.45256 -71.76692 9994 ft 211 kts 263°
2026-05-09 00:53 41.44977 -71.78614 9991 ft 211 kts 263°
2026-05-09 00:53 41.44697 -71.80536 9994 ft 212 kts 263°
2026-05-09 00:54 41.44416 -71.82464 9993 ft 212 kts 263°
2026-05-09 00:54 41.44134 -71.84394 9990 ft 212 kts 263°
2026-05-09 00:54 41.43853 -71.86322 9993 ft 212 kts 263°
2026-05-09 00:54 41.43571 -71.88248 9992 ft 212 kts 263°
2026-05-09 00:55 41.43292 -71.90148 9992 ft 212 kts 263°
2026-05-09 00:55 41.43010 -71.92072 9994 ft 212 kts 263°
2026-05-09 00:55 41.42727 -71.94001 9995 ft 212 kts 263°
2026-05-09 00:55 41.42442 -71.95934 9994 ft 212 kts 263°
2026-05-09 00:56 41.42159 -71.97858 9993 ft 212 kts 263°
2026-05-09 00:56 41.41875 -71.99785 9992 ft 212 kts 263°
2026-05-09 00:56 41.41591 -72.01714 9997 ft 212 kts 263°
2026-05-09 00:56 41.41306 -72.03643 9993 ft 213 kts 263°
2026-05-09 00:57 41.41024 -72.05549 9991 ft 213 kts 263°
2026-05-09 00:57 41.40737 -72.07482 9997 ft 213 kts 263°
2026-05-09 00:57 41.40449 -72.09417 9992 ft 213 kts 263°
2026-05-09 00:57 41.40163 -72.11357 9993 ft 213 kts 263°
2026-05-09 00:58 41.39874 -72.13297 9992 ft 213 kts 263°
2026-05-09 00:58 41.39584 -72.15233 9994 ft 213 kts 263°
2026-05-09 00:58 41.39297 -72.17172 9997 ft 213 kts 263°
2026-05-09 00:58 41.39008 -72.19110 9996 ft 213 kts 263°
2026-05-09 00:59 41.38719 -72.21044 9992 ft 213 kts 263°
2026-05-09 00:59 41.38430 -72.22976 9992 ft 213 kts 263°
2026-05-09 00:59 41.38138 -72.24914 9990 ft 213 kts 263°
2026-05-09 00:59 41.37853 -72.26824 9991 ft 213 kts 263°
2026-05-09 01:00 41.37562 -72.28763 10005 ft 214 kts 263°
2026-05-09 01:00 41.37272 -72.30697 10007 ft 213 kts 263°
2026-05-09 01:00 41.36980 -72.32629 10000 ft 213 kts 263°
2026-05-09 01:00 41.36689 -72.34562 10001 ft 213 kts 263°
2026-05-09 01:01 41.36398 -72.36496 10003 ft 213 kts 263°
2026-05-09 01:01 41.36106 -72.38429 10000 ft 213 kts 263°
2026-05-09 01:01 41.35814 -72.40359 10004 ft 213 kts 263°
2026-05-09 01:01 41.35522 -72.42287 10001 ft 213 kts 263°
2026-05-09 01:02 41.35233 -72.44190 10005 ft 212 kts 263°
2026-05-09 01:02 41.34939 -72.46121 10004 ft 213 kts 263°
2026-05-09 01:02 41.34646 -72.48052 10002 ft 213 kts 263°
2026-05-09 01:02 41.34352 -72.49989 10000 ft 214 kts 263°
2026-05-09 01:03 41.34057 -72.51927 10011 ft 214 kts 263°
2026-05-09 01:03 41.33762 -72.53862 10011 ft 213 kts 263°
2026-05-09 01:03 41.33466 -72.55794 10014 ft 213 kts 263°
2026-05-09 01:03 41.33171 -72.57724 10014 ft 213 kts 263°
2026-05-09 01:04 41.32876 -72.59660 10012 ft 214 kts 262°
2026-05-09 01:04 41.32579 -72.61601 10010 ft 214 kts 262°
2026-05-09 01:04 41.32281 -72.63545 10006 ft 215 kts 262°
2026-05-09 01:04 41.31982 -72.65487 10004 ft 214 kts 262°
2026-05-09 01:05 41.31683 -72.67432 10007 ft 215 kts 263°
2026-05-09 01:05 41.31323 -72.69359 10006 ft 216 kts 256°
2026-05-09 01:05 41.30068 -72.73014 10012 ft 219 kts 251°
2026-05-09 01:06 41.29428 -72.74854 10006 ft 220 kts 251°
2026-05-09 01:06 41.28781 -72.76692 10014 ft 219 kts 251°
2026-05-09 01:06 41.28143 -72.78492 10009 ft 200 kts 251°
2026-05-09 01:06 41.27596 -72.79990 10003 ft 162 kts 252°
2026-05-09 01:07 41.27115 -72.81354 9725 ft 165 kts 252°
2026-05-09 01:07 41.26636 -72.82732 9640 ft 163 kts 252°
2026-05-09 01:07 41.26156 -72.84098 9542 ft 163 kts 252°
2026-05-09 01:07 41.25674 -72.85466 9446 ft 163 kts 252°
2026-05-09 01:08 41.25198 -72.86814 9354 ft 163 kts 252°
2026-05-09 01:08 41.24715 -72.88177 9273 ft 163 kts 252°
2026-05-09 01:08 41.24230 -72.89547 9220 ft 169 kts 251°
2026-05-09 01:08 41.23701 -72.91061 9240 ft 190 kts 251°
2026-05-09 01:09 41.23125 -72.92708 9202 ft 204 kts 251°
2026-05-09 01:09 41.22504 -72.94470 9091 ft 213 kts 250°
2026-05-09 01:09 41.21860 -72.96285 8748 ft 225 kts 250°
2026-05-09 01:09 41.21184 -72.98214 8379 ft 231 kts 249°
2026-05-09 01:10 41.20495 -73.00132 8123 ft 228 kts 249°
2026-05-09 01:10 41.20041 -73.01396 7834 ft 230 kts 249°
2026-05-09 01:10 41.19127 -73.03966 7317 ft 230 kts 248°
2026-05-09 01:10 41.18453 -73.05860 6951 ft 230 kts 248°
2026-05-09 01:11 41.17769 -73.07780 6598 ft 230 kts 248°
2026-05-09 01:11 41.17086 -73.09695 6245 ft 230 kts 248°
2026-05-09 01:11 41.16404 -73.11609 5867 ft 230 kts 248°
2026-05-09 01:11 41.15916 -73.12858 5605 ft 232 kts 242°
2026-05-09 01:12 41.14693 -73.15226 5153 ft 232 kts 239°
2026-05-09 01:12 41.13809 -73.17020 4800 ft 232 kts 240°
2026-05-09 01:12 41.12920 -73.18808 4440 ft 233 kts 239°
2026-05-09 01:12 41.12034 -73.20571 4107 ft 233 kts 239°
2026-05-09 01:13 41.11142 -73.22333 4011 ft 226 kts 239°
2026-05-09 01:13 41.10275 -73.24042 4007 ft 221 kts 239°
2026-05-09 01:13 41.09432 -73.25727 4005 ft 218 kts 239°
2026-05-09 01:13 41.08594 -73.27400 3999 ft 217 kts 239°
2026-05-09 01:14 41.08038 -73.28503 3999 ft 219 kts 239°
2026-05-09 01:14 41.07185 -73.30204 4000 ft 224 kts 239°
2026-05-09 01:14 41.06311 -73.31921 4000 ft 226 kts 237°
2026-05-09 01:14 41.05433 -73.33527 3998 ft 206 kts 237°
2026-05-09 01:15 41.04620 -73.35030 4000 ft 197 kts 238°
2026-05-09 01:15 41.03845 -73.36482 3999 ft 186 kts 238°
2026-05-09 01:15 41.03115 -73.37843 3997 ft 177 kts 238°
2026-05-09 01:15 41.02410 -73.39156 3985 ft 180 kts 238°
2026-05-09 01:16 41.01686 -73.40513 3997 ft 180 kts 238°
2026-05-09 01:16 41.00970 -73.41844 3988 ft 175 kts 238°
2026-05-09 01:16 41.00268 -73.43147 3987 ft 173 kts 238°
2026-05-09 01:17 40.98619 -73.46217 3988 ft 178 kts 238°
2026-05-09 01:17 40.98133 -73.47120 3989 ft 178 kts 238°
2026-05-09 01:17 40.97414 -73.48456 3987 ft 178 kts 238°
2026-05-09 01:17 40.96702 -73.49776 3993 ft 178 kts 238°
2026-05-09 01:18 40.95983 -73.51110 3996 ft 178 kts 238°
2026-05-09 01:18 40.95264 -73.52444 3994 ft 178 kts 238°
2026-05-09 01:18 40.94545 -73.53777 3996 ft 178 kts 238°
2026-05-09 01:18 40.93825 -73.55111 3994 ft 178 kts 238°
2026-05-09 01:19 40.93107 -73.56441 3990 ft 178 kts 238°
2026-05-09 01:19 40.92388 -73.57773 3984 ft 178 kts 238°
2026-05-09 01:19 40.91669 -73.59104 3985 ft 178 kts 237°
2026-05-09 01:19 40.90949 -73.60434 3977 ft 178 kts 238°
2026-05-09 01:20 40.90229 -73.61766 3971 ft 178 kts 237°
2026-05-09 01:20 40.89508 -73.63098 3968 ft 178 kts 238°
2026-05-09 01:20 40.88787 -73.64431 3966 ft 178 kts 237°
2026-05-09 01:20 40.88066 -73.65764 3965 ft 178 kts 237°
2026-05-09 01:21 40.87354 -73.67077 3965 ft 178 kts 238°
2026-05-09 01:21 40.86632 -73.68409 3960 ft 178 kts 237°
2026-05-09 01:21 40.85909 -73.69742 3959 ft 178 kts 238°
2026-05-09 01:21 40.85186 -73.71074 3955 ft 178 kts 238°
2026-05-09 01:22 40.84300 -73.72226 3942 ft 183 kts 218°
2026-05-09 01:22 40.83243 -73.73159 3943 ft 182 kts 220°
2026-05-09 01:22 40.82209 -73.74124 3944 ft 182 kts 220°
2026-05-09 01:22 40.81173 -73.75090 3945 ft 182 kts 220°
2026-05-09 01:23 40.80137 -73.76054 3950 ft 182 kts 220°
2026-05-09 01:23 40.79102 -73.77017 3947 ft 182 kts 220°
2026-05-09 01:23 40.78082 -73.77969 3943 ft 182 kts 220°
2026-05-09 01:23 40.77047 -73.78934 3939 ft 182 kts 220°
2026-05-09 01:24 40.76011 -73.79895 3938 ft 182 kts 220°
2026-05-09 01:24 40.75122 -73.81033 3949 ft 177 kts 245°
2026-05-09 01:24 40.74761 -73.82567 3958 ft 176 kts 258°
2026-05-09 01:24 40.74477 -73.84138 3975 ft 176 kts 258°
2026-05-09 01:25 40.74197 -73.85709 3980 ft 176 kts 258°
2026-05-09 01:25 40.73919 -73.87284 3978 ft 176 kts 258°
2026-05-09 01:25 40.73640 -73.88859 3979 ft 177 kts 258°
2026-05-09 01:25 40.73367 -73.90412 3987 ft 176 kts 258°
2026-05-09 01:26 40.73090 -73.91983 3991 ft 176 kts 258°
2026-05-09 01:26 40.72814 -73.93559 4010 ft 177 kts 258°
2026-05-09 01:26 40.72537 -73.95138 4008 ft 177 kts 258°
2026-05-09 01:26 40.72256 -73.96715 4012 ft 177 kts 258°
2026-05-09 01:27 40.71974 -73.98291 4009 ft 176 kts 258°
2026-05-09 01:27 40.71692 -73.99862 4012 ft 176 kts 258°
2026-05-09 01:27 40.71408 -74.01434 4009 ft 176 kts 258°
2026-05-09 01:27 40.71122 -74.03002 4011 ft 176 kts 257°
2026-05-09 01:28 40.70468 -74.04349 4010 ft 181 kts 222°
2026-05-09 01:28 40.69342 -74.05101 4010 ft 186 kts 208°
2026-05-09 01:28 40.68146 -74.05752 4011 ft 186 kts 208°
2026-05-09 01:28 40.66949 -74.06405 4011 ft 186 kts 208°
2026-05-09 01:29 40.65749 -74.07052 4010 ft 186 kts 208°
2026-05-09 01:29 40.64549 -74.07694 4009 ft 186 kts 208°
2026-05-09 01:29 40.63350 -74.08332 4012 ft 186 kts 208°
2026-05-09 01:29 40.62150 -74.08964 3995 ft 184 kts 208°
2026-05-09 01:30 40.60954 -74.09593 3997 ft 186 kts 208°
2026-05-09 01:30 40.59751 -74.10231 3995 ft 186 kts 208°
2026-05-09 01:30 40.58545 -74.10863 3993 ft 187 kts 208°
2026-05-09 01:30 40.57341 -74.11500 3995 ft 187 kts 208°
2026-05-09 01:31 40.56043 -74.11753 3983 ft 198 kts 178°
2026-05-09 01:31 40.54695 -74.11275 3817 ft 208 kts 168°
2026-05-09 01:31 40.53395 -74.10389 3588 ft 219 kts 141°
2026-05-09 01:31 40.52598 -74.08665 3308 ft 227 kts 107°
2026-05-09 01:32 40.52597 -74.06610 3025 ft 226 kts 73°
2026-05-09 01:32 40.53252 -74.04799 3015 ft 215 kts 59°
2026-05-09 01:32 40.53983 -74.03116 3014 ft 210 kts 58°
2026-05-09 01:32 40.54883 -74.01712 3013 ft 196 kts 39°
2026-05-09 01:33 40.55996 -74.00749 2901 ft 193 kts 15°
2026-05-09 01:33 40.57348 -74.00383 2521 ft 199 kts
2026-05-09 01:33 40.58671 -73.99996 2429 ft 195 kts 11°
2026-05-09 01:33 40.59953 -73.99529 2192 ft 201 kts 18°
2026-05-09 01:34 40.61138 -73.98934 2713 ft 170 kts 18°
2026-05-09 01:34 40.62124 -73.98162 3021 ft 167 kts 30°
2026-05-09 01:34 40.63216 -73.97586 3041 ft 173 kts 11°
2026-05-09 01:34 40.64432 -73.97291 2916 ft 184 kts
2026-05-09 01:35 40.65695 -73.97049 2971 ft 180 kts
2026-05-09 01:35 40.66896 -73.96526 3002 ft 186 kts 24°
2026-05-09 01:35 40.68009 -73.95635 3011 ft 189 kts 28°
2026-05-09 01:35 40.69131 -73.94749 3026 ft 186 kts 27°
2026-05-09 01:36 40.70240 -73.93956 3007 ft 183 kts 24°
2026-05-09 01:36 40.71392 -73.93129 2655 ft 197 kts 31°
2026-05-09 01:36 40.72533 -73.92059 2136 ft 204 kts 32°
2026-05-09 01:36 40.73755 -73.91048 1428 ft 207 kts 31°
2026-05-09 01:37 40.74969 -73.90042 909 ft 199 kts 31°
2026-05-09 01:37 40.76059 -73.89121 1150 ft 164 kts 33°
2026-05-09 01:37 40.76880 -73.88335 1947 ft 123 kts 38°
2026-05-09 01:37 40.77442 -73.87707 2516 ft 96 kts 33°
2026-05-09 01:38 40.78023 -73.87201 2603 ft 116 kts 24°
2026-05-09 01:38 40.78712 -73.86750 2840 ft 109 kts 18°
2026-05-09 01:38 40.79574 -73.86286 2710 ft 160 kts 17°
2026-05-09 01:38 40.80704 -73.85700 2519 ft 189 kts 19°
2026-05-09 01:39 40.81937 -73.85013 2347 ft 194 kts 21°
2026-05-09 01:39 40.83177 -73.84271 2173 ft 196 kts 24°
2026-05-09 01:39 40.84390 -73.83500 2128 ft 190 kts 25°
2026-05-09 01:39 40.85508 -73.82747 2351 ft 167 kts 25°
2026-05-09 01:40 40.86505 -73.82051 2770 ft 163 kts 25°
2026-05-09 01:40 40.87520 -73.81341 3201 ft 167 kts 24°
2026-05-09 01:40 40.88552 -73.80606 3625 ft 170 kts 24°
2026-05-09 01:40 40.89600 -73.79848 4004 ft 177 kts 24°
2026-05-09 01:41 40.90747 -73.79007 4020 ft 197 kts 25°
2026-05-09 01:41 40.91924 -73.78107 4024 ft 199 kts 27°
2026-05-09 01:41 40.93114 -73.77157 4010 ft 201 kts 28°
2026-05-09 01:41 40.94270 -73.76115 4009 ft 204 kts 41°
2026-05-09 01:42 40.94903 -73.74446 4011 ft 208 kts 84°
2026-05-09 01:42 40.94624 -73.72629 4011 ft 202 kts 126°
2026-05-09 01:42 40.93596 -73.71502 4012 ft 190 kts 166°
2026-05-09 01:42 40.92324 -73.71153 4012 ft 186 kts 178°
2026-05-09 01:43 40.91041 -73.70888 4011 ft 187 kts 178°
2026-05-09 01:43 40.89756 -73.70625 4011 ft 187 kts 178°
2026-05-09 01:43 40.88467 -73.70368 4023 ft 187 kts 178°
2026-05-09 01:43 40.87179 -73.70111 4022 ft 187 kts 178°
2026-05-09 01:44 40.85907 -73.69858 4024 ft 188 kts 178°
2026-05-09 01:44 40.84611 -73.69601 4020 ft 188 kts 178°
2026-05-09 01:44 40.83315 -73.69344 4021 ft 188 kts 178°
2026-05-09 01:44 40.82077 -73.69576 4029 ft 177 kts 214°
2026-05-09 01:45 40.81144 -73.70595 4026 ft 174 kts 227°
2026-05-09 01:45 40.80265 -73.71693 4025 ft 174 kts 228°
2026-05-09 01:45 40.79387 -73.72789 4027 ft 174 kts 228°
2026-05-09 01:45 40.78508 -73.73890 4025 ft 174 kts 228°
2026-05-09 01:46 40.77872 -73.75196 4027 ft 170 kts 254°
2026-05-09 01:46 40.77583 -73.76705 4026 ft 170 kts 258°
2026-05-09 01:46 40.77307 -73.78221 4028 ft 170 kts 258°
2026-05-09 01:46 40.77038 -73.79718 4026 ft 170 kts 258°
2026-05-09 01:47 40.76767 -73.81232 4029 ft 170 kts 258°
2026-05-09 01:47 40.76494 -73.82747 4027 ft 170 kts 258°
2026-05-09 01:47 40.76222 -73.84266 4028 ft 170 kts 258°
2026-05-09 01:47 40.75952 -73.85784 4024 ft 170 kts 258°
2026-05-09 01:48 40.75682 -73.87302 4025 ft 170 kts 258°
2026-05-09 01:48 40.75413 -73.88822 4025 ft 170 kts 258°
2026-05-09 01:48 40.75146 -73.90341 4024 ft 170 kts 258°
2026-05-09 01:48 40.74877 -73.91857 4023 ft 170 kts 258°
2026-05-09 01:49 40.74606 -73.93375 4024 ft 170 kts 258°
2026-05-09 01:49 40.74333 -73.94898 4023 ft 172 kts 258°
2026-05-09 01:49 40.74059 -73.96442 4027 ft 178 kts 258°
2026-05-09 01:49 40.73777 -73.98052 4026 ft 182 kts 258°
2026-05-09 01:50 40.73490 -73.99683 4029 ft 183 kts 258°
2026-05-09 01:50 40.73197 -74.01322 4026 ft 184 kts 257°
2026-05-09 01:50 40.72534 -74.02747 4005 ft 190 kts 224°
2026-05-09 01:50 40.71352 -74.03569 4012 ft 194 kts 209°
2026-05-09 01:51 40.70107 -74.04256 4014 ft 194 kts 208°
2026-05-09 01:51 40.68860 -74.04942 4013 ft 194 kts 208°
2026-05-09 01:51 40.67609 -74.05619 4012 ft 194 kts 208°
2026-05-09 01:51 40.66375 -74.06290 4011 ft 194 kts 208°
2026-05-09 01:52 40.65123 -74.06967 4010 ft 195 kts 208°
2026-05-09 01:52 40.63838 -74.07542 4008 ft 200 kts 194°
2026-05-09 01:52 40.62435 -74.07231 3777 ft 208 kts 160°
2026-05-09 01:52 40.61386 -74.05978 3250 ft 205 kts 123°
2026-05-09 01:53 40.61127 -74.04258 3099 ft 179 kts 80°
2026-05-09 01:53 40.61592 -74.02885 3109 ft 157 kts 57°
2026-05-09 01:53 40.62122 -74.01672 3108 ft 150 kts 58°
2026-05-09 01:53 40.62635 -74.00493 3109 ft 147 kts 58°
2026-05-09 01:54 40.63151 -73.99340 3110 ft 146 kts 58°
2026-05-09 01:54 40.63698 -73.98252 3181 ft 137 kts 39°
2026-05-09 01:54 40.64491 -73.97554 3095 ft 146 kts 21°
2026-05-09 01:54 40.65441 -73.96970 3007 ft 156 kts 20°
2026-05-09 01:55 40.66461 -73.96414 2819 ft 161 kts 15°
2026-05-09 01:55 40.67466 -73.95896 2893 ft 160 kts 19°
2026-05-09 01:55 40.68510 -73.95288 2738 ft 167 kts 23°
2026-05-09 01:55 40.69145 -73.94826 2681 ft 166 kts 27°
2026-05-09 01:56 40.69752 -73.94368 2643 ft 162 kts 20°
2026-05-09 01:56 40.70749 -73.93775 2434 ft 156 kts 31°
2026-05-09 01:56 40.71581 -73.92898 2013 ft 157 kts 38°
2026-05-09 01:56 40.72487 -73.92085 1585 ft 156 kts 28°
2026-05-09 01:57 40.73381 -73.91410 1216 ft 145 kts 34°
2026-05-09 01:57 40.74173 -73.90669 850 ft 136 kts 32°
2026-05-09 01:57 40.74909 -73.90113 659 ft 97 kts 37°
2026-05-09 01:57 40.75416 -73.89664 535 ft 87 kts 36°
2026-05-09 01:58 40.75958 -73.89238 407 ft 93 kts 36°
2026-05-09 01:58 40.76506 -73.88761 238 ft 95 kts 35°
2026-05-09 01:58 40.77046 -73.88314 69 ft 90 kts 38°
2026-05-09 01:58 40.77518 -73.87919 23 ft 67 kts 40°
2026-05-09 01:59 40.77749 -73.87716 20 ft 19 kts 31°
2026-05-09 01:59 40.77795 -73.87649 18 ft 14 kts 54°
2026-05-09 01:59 40.77840 -73.87550 16 ft 9 kts 63°
2026-05-09 01:59 40.77842 -73.87544 16 ft 0 kts 64°